Dewpoint
26 25 23 26 24 22 24 24 24 23 23 24 20 23 21 24 19 17 28 30 26 34 45 47 46 47 48 48 48 49 49 48 48 50 51 50 51 52 53 54 55 56 56 58 59 60 61 62 64 66 64 64 64 65 64 65 64 64 65 65 65 65 66 66 67 67 67 67 67 67 68 67 67 66 65 65 65 65 66 65 65 64 63 63 64 66 67
26 25 26 27 24 25 25 25 24 23 22 20 20 17 18 20 24 23 21 27 28 45 45 47 46 47 47 47 48 49 49 49 49 48 49 51 51 51 52 53 54 55 56 57 58 59 60 61 62 63 66 67 64 64 64 64 65 65 66 65 65 65 65 66 67 68 68 68 68 68 68 68 67 67 65 65 64 64 64 65 66 67 66 65 64 64 65
25 26 31 26 27 27 25 24 23 23 22 20 20 18 19 29 21 19 18 23 31 44 46 48 47 48 47 47 47 48 49 49 49 48 49 50 52 52 53 53 54 54 55 56 57 58 59 60 61 62 63 67 68 65 64 64 65 66 66 66 66 66 66 67 68 68 69 69 69 68 68 68 68 67 66 65 65 65 65 64 65 66 66 66 65 64 64
22 25 27 27 28 27 23 23 23 21 21 24 28 30 35 32 27 32 28 28 36 44 45 47 48 47 47 46 47 47 49 48 48 48 49 49 50 52 52 53 54 54 54 55 56 57 58 59 61 61 63 64 66 68 67 65 65 66 66 66 66 67 67 68 68 69 69 69 69 69 69 68 68 68 67 66 66 66 65 64 65 64 64 65 66 65 65
21 24 29 27 25 16 15 18 22 26 24 24 27 40 45 44 43 35 29 33 44 45 47 45 46 47 47 47 47 47 49 49 48 48 48 48 50 51 51 52 54 54 55 55 56 57 58 60 61 62 63 63 64 65 69 70 67 66 66 66 67 68 67 68 69 69 69 70 70 69 69 69 69 69 68 67 67 66 64 64 64 65 64 63 64 64 65
21 24 27 29 14 7 15 23 28 29 31 33 36 41 44 44 44 42 43 44 45 45 44 44 43 47 47 47 48 49 49 50 49 48 48 48 49 50 52 52 53 54 55 57 57 57 58 60 60 62 64 64 64 66 68 70 71 69 69 69 69 69 70 69 70 70 70 70 69 70 70 70 69 69 69 68 67 66 65 66 65 64 63 63 63 64 64
21 24 25 21 9 9 25 28 29 29 38 40 44 43 43 43 44 44 44 44 44 44 45 45 45 46 49 48 48 46 48 51 50 49 48 48 48 49 50 52 53 54 55 56 57 57 58 60 60 60 62 62 64 66 68 70 70 70 71 70 70 70 70 70 70 70 69 69 69 70 70 70 70 69 69 69 68 67 67 66 66 65 64 63 63 64 63
25 23 20 5 10 22 28 28 38 43 38 38 42 44 43 42 43 44 44 44 44 45 44 45 45 45 47 48 48 45 46 48 51 51 49 49 49 49 49 50 52 53 54 55 56 57 59 59 61 61 61 63 64 66 68 69 69 70 70 70 70 70 70 69 70 69 69 69 70 70 70 70 70 70 69 69 69 69 68 67 67 66 66 65 64 64 63
21 22 20 13 25 24 26 35 39 38 35 37 36 33 37 42 43 43 43 44 45 45 44 45 44 44 47 49 49 45 45 46 48 52 52 50 50 50 50 50 50 53 54 55 56 58 58 58 60 61 62 64 65 67 68 69 70 70 70 69 69 70 70 70 70 70 70 70 70 71 71 70 70 70 70 70 70 70 69 68 67 67 66 65 66 64 64
26 22 22 20 18 17 23 34 41 42 42 41 41 38 36 43 42 43 43 43 44 45 45 45 44 44 49 45 44 44 45 46 47 49 51 52 51 50 50 51 51 53 54 55 57 57 56 57 59 60 61 63 64 66 68 69 69 70 70 69 70 70 70 70 71 71 71 71 71 71 71 71 71 71 71 71 71 71 70 69 68 68 67 67 67 66 65
25 24 20 18 15 21 26 33 36 39 41 41 41 35 30 43 41 43 44 44 44 44 44 45 44 42 39 41 43 44 45 46 47 47 49 50 52 51 51 51 51 52 53 56 56 57 56 56 57 59 61 63 64 66 67 68 68 68 69 69 70 70 70 71 71 72 72 72 71 71 72 72 71 72 72 72 72 72 71 71 70 70 70 69 68 68 66
29 24 20 20 23 21 29 36 39 40 41 42 33 23 25 40 41 43 44 44 42 43 43 44 43 42 41 41 43 45 46 47 47 47 48 49 50 51 51 51 52 54 55 54 55 55 56 57 57 59 60 61 63 64 64 67 67 67 67 68 69 70 71 71 71 72 72 73 73 72 72 72 72 72 73 73 73 72 72 71 71 70 70 70 69 69 68
30 30 25 25 27 34 40 39 40 40 42 36 26 23 36 41 42 44 44 43 42 43 42 42 41 43 44 44 45 46 47 46 46 47 48 49 50 51 51 51 54 53 52 53 53 55 56 58 57 58 60 61 61 62 63 65 65 66 67 68 69 69 71 71 71 70 71 72 73 73 73 74 73 74 73 73 73 73 72 72 72 71 71 70 70 70 69
26 28 26 26 27 34 39 40 41 43 34 26 24 35 41 41 43 44 43 42 42 42 41 41 42 42 43 45 46 46 46 46 47 47 47 48 48 49 51 53 54 53 52 53 53 54 55 55 56 58 59 58 60 61 61 62 63 63 65 66 68 69 70 70 71 70 70 70 71 72 73 73 72 72 73 74 73 73 72 72 72 72 72 71 71 71 70
30 31 28 28 24 35 41 41 37 41 32 33 37 39 42 44 43 42 42 42 41 41 40 41 41 41 42 44 45 46 46 46 46 47 48 48 48 49 50 50 51 53 53 52 52 53 54 55 56 58 59 58 58 59 60 61 61 62 63 65 66 68 70 71 72 72 71 71 71 69 70 72 72 72 72 73 73 73 73 73 73 72 72 72 71 71 71
26 28 27 27 33 37 41 37 32 37 41 40 42 42 41 41 41 41 40 40 41 41 41 40 40 41 42 43 44 45 45 46 46 47 48 48 49 50 50 50 51 53 53 53 52 53 55 56 56 57 59 59 58 58 59 60 60 61 62 62 64 67 69 72 72 72 72 71 71 72 72 72 71 71 72 72 73 73 73 73 72 72 72 72 71 71 70
29 28 31 35 37 39 41 40 39 39 41 41 44 42 41 39 40 41 40 40 40 41 41 41 41 41 42 43 44 44 44 45 46 47 48 49 49 49 50 50 52 53 52 52 52 53 55 56 57 57 58 58 58 58 58 60 60 60 60 62 63 67 68 68 69 72 73 73 74 73 73 72 71 71 70 71 71 72 73 72 72 72 72 72 71 71 71
34 35 35 36 38 39 39 41 41 40 40 42 42 40 39 40 40 41 40 40 40 41 41 41 41 42 43 43 43 44 44 45 45 48 48 48 49 49 49 50 50 52 52 52 52 52 54 55 56 58 58 58 57 58 60 60 59 60 60 61 62 64 65 66 66 66 67 69 72 73 73 73 72 72 71 71 71 71 72 72 72 72 72 71 71 71 71
27 25 34 35 35 35 37 38 40 41 41 41 40 39 39 40 41 41 41 41 41 41 41 41 41 42 43 44 44 44 44 45 45 45 46 48 49 49 49 50 52 51 52 52 52 52 53 55 56 56 57 58 58 58 58 58 59 59 59 60 61 61 62 64 65 66 67 67 69 70 72 73 73 72 72 71 71 71 71 71 71 71 71 71 71 70 70
30 29 32 35 38 38 39 39 38 37 39 40 41 41 40 41 41 41 41 41 41 41 41 42 42 43 43 43 43 43 44 44 45 46 46 47 48 49 49 50 51 51 51 51 52 52 54 54 56 57 57 57 58 58 58 58 58 59 59 59 60 61 61 62 63 65 66 68 69 70 71 72 72 72 71 70 70 69 70 70 71 71 71 71 70 70 70
34 33 34 35 36 35 36 37 38 38 38 38 39 40 41 41 41 41 41 42 41 41 41 42 42 42 42 43 43 43 44 44 45 45 46 47 47 48 49 49 50 50 51 52 53 53 53 54 56 57 57 58 58 58 58 58 58 58 59 60 60 60 61 62 63 65 66 67 69 70 71 72 72 72 72 71 70 70 70 71 71 71 71 70 71 71 70
29 29 30 34 29 29 31 34 37 39 39 39 39 40 41 41 40 40 40 40 42 42 42 41 41 41 42 43 43 43 43 44 44 45 46 46 47 47 48 49 49 49 52 53 53 54 53 54 56 57 57 58 58 57 58 58 58 58 59 59 60 60 61 62 63 65 66 66 68 69 69 69 70 71 69 63 67 70 70 66 64 62 62 70 71 71 71
28 32 33 35 33 32 32 33 37 40 40 40 40 40 40 40 40 41 41 40 41 41 41 42 42 42 42 42 43 43 43 44 44 45 46 46 46 46 47 47 47 49 50 53 54 54 54 55 56 57 58 57 57 57 57 57 57 58 58 59 60 60 61 62 63 64 65 65 67 68 69 69 70 70 71 70 56 55 60 65 61 58 55 57 58 62 70
35 35 35 37 35 34 35 37 38 38 40 40 40 40 41 41 41 41 41 41 41 41 42 42 42 42 42 42 43 43 43 44 44 45 45 46 46 47 48 47 48 50 51 52 53 54 54 55 56 57 57 57 56 56 56 57 57 57 58 58 59 60 61 62 63 64 64 66 68 68 69 69 70 70 70 70 71 60 54 55 56 55 54 54 54 55 56
36 37 37 38 38 38 38 38 40 40 41 42 40 41 41 42 42 43 43 43 43 42 41 41 41 42 41 42 42 42 43 43 44 45 46 48 48 48 48 49 50 51 52 53 53 54 54 55 57 58 57 56 55 55 56 56 57 57 57 58 58 59 60 62 63 64 65 66 67 68 68 69 69 69 69 70 70 70 69 55 52 54 53 52 51 51 52
38 38 39 39 39 40 41 41 41 41 41 43 44 44 46 47 46 46 44 43 42 41 41 41 41 42 42 42 42 42 42 43 46 47 46 47 47 47 48 49 50 52 52 54 54 54 55 57 57 57 56 55 55 55 55 56 56 56 57 57 59 60 61 63 64 64 65 66 67 67 68 68 69 69 69 70 70 71 70 70 69 61 53 50 50 51 50
40 41 41 38 38 39 40 39 40 40 41 42 42 42 42 42 45 45 43 42 41 41 41 41 41 42 42 42 43 43 44 45 46 46 46 47 47 48 48 50 51 52 54 53 54 55 56 58 58 56 55 54 55 55 55 55 56 56 56 57 58 61 62 62 62 62 63 64 65 66 67 67 68 68 68 69 70 71 70 70 70 70 70 70 58 50 59
40 40 40 38 37 37 38 40 41 42 42 42 42 42 42 42 42 41 40 40 40 40 41 41 41 41 41 42 42 43 43 43 42 43 43 44 46 48 51 52 52 52 53 54 54 55 57 57 55 54 54 54 55 55 55 55 55 56 56 57 58 59 59 59 60 61 62 63 63 64 64 65 67 68 68 69 69 70 70 70 70 70 69 71 71 61 53
40 40 41 40 39 40 40 41 41 42 42 42 44 43 42 41 40 40 40 39 39 40 40 41 42 42 42 42 42 42 43 43 44 44 44 45 47 47 49 50 51 52 53 54 54 55 55 54 53 53 53 54 54 55 55 55 55 55 56 56 56 57 58 59 59 60 60 61 61 62 62 63 64 65 66 67 68 70 71 72 71 70 70 71 69 68 61
40 41 41 41 40 41 41 40 41 41 42 42 42 42 42 41 40 40 40 39 39 39 40 41 41 41 41 41 42 43 44 45 45 45 46 47 47 48 48 50 51 52 53 53 54 55 53 53 53 53 53 54 53 54 55 55 55 55 55 56 56 57 58 58 58 59 59 59 61 61 62 63 64 65 66 66 67 68 69 71 72 71 71 71 68 69 70
42 42 42 42 42 42 41 41 41 41 42 42 41 41 41 41 40 40 39 39 40 40 41 41 42 42 42 43 44 44 45 46 46 46 46 46 47 48 49 49 50 51 53 54 55 54 53 53 53 52 53 54 54 54 55 55 54 55 55 55 55 56 56 56 56 58 58 59 60 61 62 63 64 65 65 66 66 67 68 69 70 71 71 72 72 71 70
42 42 42 42 41 41 41 41 41 41 41 41 40 41 41 40 40 39 40 41 41 41 41 42 43 43 43 44 45 45 45 46 46 46 47 47 47 48 49 50 51 53 53 54 54 54 53 52 52 53 53 54 55 54 54 55 55 55 55 56 55 55 55 55 57 57 58 58 59 60 62 62 63 64 65 65 66 66 67 68 68 70 71 71 71 71 71
40 39 39 39 41 40 41 41 40 40 40 40 40 41 41 41 41 42 42 42 42 43 43 43 44 44 45 45 45 46 46 46 46 47 47 47 47 48 50 52 53 54 54 53 52 52 52 52 52 53 53 54 54 54 54 54 55 55 54 54 54 54 56 55 55 56 57 58 58 59 60 60 61 63 64 65 66 66 67 67 67 68 69 70 71 72 70
40 39 40 40 41 40 39 39 39 40 40 40 40 40 40 41 42 42 42 43 44 44 44 44 45 46 46 47 47 47 47 47 47 47 48 48 49 49 51 53 54 53 52 51 51 51 51 52 52 53 54 54 54 53 53 54 54 55 54 53 53 54 54 55 55 56 56 57 57 57 57 59 60 61 63 65 66 66 66 66 66 67 67 69 70 65 57
41 41 40 39 40 40 40 39 38 39 40 39 40 40 41 41 42 42 44 44 44 45 46 46 46 47 47 47 49 48 48 48 48 48 49 50 50 51 53 53 52 51 50 50 50 50 51 51 52 53 54 53 53 53 53 54 54 54 53 53 54 54 54 55 54 54 54 55 55 55 56 57 58 59 61 63 65 66 66 66 67 67 67 68 67 60 58
41 41 41 41 40 41 42 41 40 40 40 40 40 41 42 42 43 43 43 44 46 46 46 46 47 47 46 47 48 48 49 49 49 49 49 50 51 51 50 50 50 49 49 49 49 50 51 52 53 53 53 52 52 53 53 54 54 53 52 52 52 52 53 53 53 53 53 53 53 54 55 55 56 57 58 58 61 64 66 66 66 67 67 67 63 59 57
42 41 41 41 40 41 41 41 41 41 41 41 42 42 43 42 43 44 45 45 46 45 46 46 46 46 46 46 47 48 48 48 48 48 48 48 48 48 49 48 48 48 48 47 48 50 51 51 53 52 52 52 52 52 53 54 54 52 52 52 51 51 51 51 51 51 51 52 52 52 53 53 53 53 54 54 54 55 56 58 61 62 61 60 60 59 57
42 42 41 41 40 41 41 41 42 42 43 42 42 44 44 43 43 44 45 45 45 45 45 45 45 46 46 46 46 46 46 47 48 48 47 47 48 47 47 47 47 48 47 47 49 50 51 52 52 51 50 51 52 51 52 53 52 51 51 51 50 51 50 50 50 50 50 50 51 50 51 51 51 51 51 52 52 53 53 53 53 53 52 52 52 52 51
41 41 41 41 42 41 42 43 43 43 43 42 42 42 43 45 45 45 45 44 44 45 44 44 44 44 44 45 45 45 45 46 47 46 47 47 47 47 46 46 47 48 49 50 50 50 51 51 50 50 50 51 51 51 52 52 51 51 50 50 49 50 49 49 49 49 50 49 49 49 49 49 49 49 49 49 50 50 50 50 49 49 48 48 48 47 47
40 41 40 41 41 41 41 42 42 42 43 43 42 42 43 44 44 45 44 43 43 44 43 44 43 43 43 43 44 44 45 45 45 46 46 47 47 46 46 46 47 49 49 49 50 50 50 50 50 49 50 50 51 51 51 50 50 50 50 49 49 49 49 49 48 48 48 48 48 48 47 48 48 48 48 48 47 48 48 47 47 47 46 46 46 45 45
40 41 40 41 42 42 41 41 41 42 43 43 42 42 43 44 44 44 43 43 42 43 42 43 43 42 41 42 43 43 44 45 46 45 45 46 45 45 44 44 47 48 50 49 49 50 49 49 50 50 49 50 51 50 50 49 49 49 49 49 49 48 48 47 47 47 47 47 47 47 47 46 46 46 46 46 46 45 46 45 45 45 44 44 44 44 44
40 41 42 42 42 41 42 41 42 42 42 42 44 43 43 44 44 44 43 42 42 42 41 42 43 42 42 42 42 42 42 43 44 45 45 44 44 44 43 44 47 49 47 47 48 48 49 49 50 50 50 50 51 49 49 49 49 48 48 48 48 48 48 47 47 47 47 47 47 46 47 46 45 45 45 44 44 44 44 43 43 43 43 43 43 43 43
42 41 41 42 42 42 42 42 42 42 44 43 43 43 43 43 44 43 42 41 41 41 40 40 41 41 41 41 41 41 41 42 42 43 45 45 46 46 45 46 47 49 47 48 48 48 48 49 49 50 49 50 49 49 48 48 47 48 48 48 48 48 47 47 47 47 47 46 46 46 46 45 45 44 44 43 43 43 43 42 42 42 42 42 42 42 42
43 41 42 42 43 44 42 43 44 43 42 42 43 42 42 43 43 42 41 42 41 41 41 40 40 40 40 40 40 40 40 41 41 42 43 44 45 46 47 48 47 47 46 48 48 48 48 48 49 48 48 48 47 47 47 47 47 47 46 47 48 47 47 46 47 46 46 45 46 46 45 45 44 44 43 43 43 42 42 42 42 41 42 41 41 41 41
42 42 42 43 44 44 43 43 42 41 43 43 43 43 43 42 43 43 43 41 41 41 42 42 41 41 41 40 40 40 41 41 41 42 41 41 42 43 47 47 48 47 47 46 47 47 48 48 47 47 47 47 47 46 47 47 46 46 46 46 46 46 47 46 46 46 46 46 46 45 45 45 44 44 44 44 43 43 42 42 42 42 42 42 42 41 40
43 43 45 47 43 42 42 42 43 43 42 42 42 43 44 43 43 44 44 43 43 43 42 42 42 42 41 41 41 41 40 41 41 42 42 42 42 44 47 45 47 46 45 46 47 47 47 46 46 46 46 46 46 46 46 47 46 45 45 45 46 46 45 45 46 46 46 45 45 45 45 45 45 44 44 44 44 44 43 44 43 43 42 42 41 41 41
43 44 43 42 44 45 44 44 44 43 42 41 41 41 43 43 44 43 44 44 43 43 42 43 43 42 42 42 41 40 39 40 40 41 42 43 44 45 46 44 44 44 46 46 46 46 47 47 46 45 45 46 46 46 46 46 45 45 45 45 45 45 45 45 44 44 45 45 46 45 45 45 45 44 45 44 44 43 43 43 42 42 42 43 43 43 42
44 43 42 43 44 44 44 44 42 41 41 42 42 43 43 43 42 43 43 44 44 44 44 44 44 43 43 42 43 42 42 40 38 38 41 42 43 44 45 45 45 43 45 45 45 45 44 44 44 44 45 45 46 45 45 45 45 45 45 45 44 45 45 45 44 45 44 44 44 44 44 44 44 44 45 44 44 44 44 44 43 43 43 42 42 42 42
43 44 44 45 44 43 42 42 43 44 42 44 43 43 44 44 44 43 43 43 44 45 45 44 44 44 45 45 43 43 43 43 41 39 42 43 42 42 44 45 43 43 45 45 44 45 44 43 44 44 44 45 45 45 45 45 45 45 45 45 45 45 45 45 44 44 44 44 44 44 44 44 43 43 43 43 44 44 44 44 43 43 43 43 42 43 42
45 44 43 43 42 43 43 43 43 42 42 44 42 44 45 44 43 42 44 44 44 44 44 45 45 45 45 44 45 45 44 43 44 43 43 43 42 42 43 43 43 42 42 44 43 44 44 43 43 43 44 44 44 45 45 44 45 45 45 45 45 44 45 45 43 43 44 44 43 44 44 44 44 44 44 44 43 43 43 44 44 42 42 43 43 42 41
45 44 44 45 45 44 40 40 41 43 43 43 43 45 44 45 45 43 42 43 43 42 43 44 44 45 44 44 45 45 46 45 45 42 44 43 43 42 41 43 43 43 43 43 43 43 43 44 43 43 43 43 43 44 44 44 44 44 44 44 44 45 44 44 44 43 43 43 43 42 42 42 42 42 41 42 42 42 42 42 42 42 42 43 43 42 42
44 44 44 43 42 42 42 42 44 43 44 44 44 46 46 45 44 43 44 41 44 42 43 42 42 44 45 45 45 46 46 46 45 45 44 44 44 43 44 42 43 43 42 42 42 42 43 43 44 43 42 42 42 43 42 43 43 43 43 43 43 44 44 44 44 43 43 43 42 40 40 40 39 38 40 40 41 41 40 40 41 41 42 41 41 41 40